User: anonymous   Login
Location: Emerald Isle
(34.6779°N, 76.9508°W)
Time: 17:23:39
(UTC-04:00)
Language:

CENTAUR R/B - Orbit

View from above orbital plane
View from above orbital plane
View from above satellite
View from above satellite

Ground track
Ground track

The orbit data is extracted from the following two-line orbital elements,

1 26906U 01040B   18180.91285991 0.00000000  00000-0  00000-0 0    03
2 26906  63.4567  84.8295 0387756 341.1300  18.8700 13.44029031    01
Epoch (UTC): 29 June 2018 21:54:31
Eccentricity: 0.0387756
inclination: 63.4567°
perigee height: 804 km
apogee height: 1384 km
right ascension of ascending node: 84.8295°
argument of perigee: 341.1300°
revolutions per day: 13.44029031
mean anomaly at epoch: 18.8700°
orbit number at epoch: 0

The dashed part of the orbit path shows where the satellite is in the earth's shadow,  

DLR